sat.trackr.live / text

‹ back to catalog

GPM-CORE

NORAD 39574 · 2014-009C

PAYLOAD ACTIVE UNKNOWN

§ Identity

Operator
Country
JPN
Launch date
2014-02-27
Launch site
TANSC
Launch vehicle
Mass (kg)
RCS (m²)
8.10

Purposes: earth_obs

External: N2YO · Heavens-Above · Gunter

§ Orbital elements

Epoch: 2026-05-25T04:00:17.741664Z

Period
93.20 min
Inclination
64.9737°
Eccentricity
0.0011870
Mean motion
15.45122468 rev/d
Perigee alt
422.9 km
Apogee alt
439.1 km
Semi-major
6,809.2 km
B*
2.2956e-4
RAAN
25.2838°
Arg perigee
266.0403°
Mean anomaly
93.9381°
Rev number
69,425

§ Raw data

GPM-CORE1 39574U 14009C   26145.16687201  .00010715  00000+0  22956-3 0  99912 39574  64.9737  25.2838 0011870 266.0403  93.9381 15.45122468694259

JSON: /api/v1/satellites/39574 · /tle

For live sub-satellite position, see the globe view (requires WebGL).

§ Visibility from observer

Set your observer location to see the next 7 days of passes ≥ 10°. The values pass through the URL so the page stays shareable.

No JS? Fill the form by hand. The geolocation button needs JavaScript.

§ Radio — SatNOGS DB

ModeDescriptionDownlinkUplink
FM S-band telemetry 2.288 GHz

1 transmitter · refreshed weekly from db.satnogs.org